Dutch Harbor, AK

5:42 AM AKDT on April 28, 2017 (GMT -0800)
Unalaska

Weather History for PADU - April, 2013

Change the Weather History Date:

Sunday, April 7, 2013

  Actual Average Record
Temperature  
Mean Temperature 28 °F -  
Max Temperature 33 °F 40 °F 51 °F (1954)
Min Temperature 24 °F 28 °F 10 °F (1984)
Degree Days  
Heating Degree Days 36    
Moisture  
Dew Point 19 °F    
Average Humidity 70    
Maximum Humidity 75    
Minimum Humidity 63    
Precipitation  
Precipitation 0.00 in - - ()
Sea Level Pressure  
Sea Level Pressure 29.92 in    
Wind  
Wind Speed 20 mph (NNE)    
Max Wind Speed 29 mph    
Max Gust Speed 40 mph    
Visibility 9 miles    
Events Rain , Snow    
Averages and records for this station are not official NWS values.
T = Trace of Precipitation, MM = Missing Value Source: NWS Daily Summary

Daily Weather History Graph

Daily Weather History Graph

Search for Another Location

Airport or City:

Trip Planner

Search our weather history database for the weather conditions in past years. The results will help you decide how hot, cold, wet, or windy it might be!

Date:

Astronomy

Apr. 07, 2013 Rise Set
Actual Time 8:23 AM AKDT 9:54 PM AKDT
Civil Twilight 7:46 AM AKDT 10:30 PM AKDT
Nautical Twilight 7:01 AM AKDT 11:16 PM AKDT
Astronomical Twilight 6:11 AM AKDT 12:07 AM AKDT
Moon 7:08 AM AKDT (4/7) 7:23 PM AKDT (4/7)
Length of Visible Light 14h 44m
Length of Day
13h 30m
Waning Crescent, 7% of the Moon is Illuminated
Apr 7
Waning Crescent
Apr 10
New
Apr 18
First Quarter
Apr 25
Full
May 2
Last Quarter

Hourly Weather History & Observations

Time (AKDT) Temp. Windchill Dew Point Humidity Pressure Visibility Wind Dir Wind Speed Gust Speed Precip Events Conditions
12:56 AM 33.1 °F 20.9 °F 26.1 °F 75% 29.78 in 10.0 mi NNE 21.9 mph 27.6 mph 0.00 in Rain Light Rain
1:56 AM 32.0 °F 19.2 °F 25.0 °F 75% 29.80 in 10.0 mi NNE 23.0 mph 33.4 mph 0.00 in   Overcast
2:56 AM 30.9 °F 17.5 °F 23.0 °F 72% 29.82 in 10.0 mi NNE 24.2 mph 32.2 mph N/A   Overcast
3:56 AM 30.0 °F 17.2 °F 21.9 °F 72% 29.82 in 10.0 mi NNE 20.7 mph 32.2 mph N/A   Mostly Cloudy
4:17 AM 30.2 °F 16.5 °F 21.2 °F 69% 29.81 in 10.0 mi NNE 24.2 mph 33.4 mph N/A   Overcast
4:56 AM 28.9 °F 14.3 °F 21.0 °F 72% 29.82 in 10.0 mi NNE 26.5 mph 38.0 mph N/A   Partly Cloudy
5:47 AM 28.4 °F 13.8 °F 19.4 °F 69% 29.81 in 10.0 mi NNE 25.3 mph 33.4 mph N/A   Mostly Cloudy
5:56 AM 28.9 °F 13.7 °F 19.9 °F 69% 29.83 in 10.0 mi NNE 28.8 mph 33.4 mph N/A   Mostly Cloudy
6:56 AM 28.9 °F 16.1 °F 19.9 °F 69% 29.83 in 10.0 mi NE 19.6 mph 36.8 mph N/A   Overcast
7:56 AM 28.0 °F 16.1 °F 19.0 °F 69% 29.85 in 10.0 mi NE 16.1 mph 38.0 mph N/A   Overcast
8:56 AM 27.0 °F 13.5 °F 18.0 °F 69% 29.87 in 10.0 mi NNE 19.6 mph 40.3 mph 0.00 in   Overcast
9:56 AM 26.1 °F 11.3 °F 19.0 °F 75% 29.88 in 9.0 mi NE 23.0 mph 36.8 mph 0.00 in Snow Light Snow
10:56 AM 26.1 °F 13.6 °F 18.0 °F 71% 29.91 in 7.0 mi ENE 16.1 mph 35.7 mph 0.00 in Snow Light Snow
1:56 PM 27.0 °F 13.2 °F 17.1 °F 66% 29.96 in 10.0 mi NE 20.7 mph 34.5 mph 0.00 in Snow Light Snow
2:56 PM 27.0 °F 15.2 °F 18.0 °F 69% 29.96 in 9.0 mi NE 15.0 mph 31.1 mph 0.00 in Snow Light Snow
3:56 PM 27.0 °F 14.7 °F 18.0 °F 69% 29.96 in 9.0 mi ENE 16.1 mph 34.5 mph 0.00 in Snow Light Snow
4:56 PM 27.0 °F 15.6 °F 19.0 °F 72% 29.98 in 10.0 mi NE 13.8 mph 32.2 mph 0.00 in   Overcast
5:56 PM 27.0 °F 13.2 °F 18.0 °F 69% 29.99 in 10.0 mi NE 20.7 mph 28.8 mph 0.00 in Snow Light Snow
6:43 PM 26.6 °F 16.2 °F 17.6 °F 69% 29.97 in 9.0 mi NE 11.5 mph 32.2 mph 0.00 in Snow Light Snow
6:56 PM 27.0 °F 17.3 °F 17.1 °F 66% 30.00 in 9.0 mi NNE 10.4 mph 25.3 mph 0.00 in Snow Light Snow
7:10 PM 26.6 °F 15.2 °F 17.6 °F 69% 29.99 in 8.0 mi NNE 13.8 mph 29.9 mph 0.00 in Snow Light Snow
7:56 PM 26.1 °F 14.0 °F 17.1 °F 69% 30.02 in 7.0 mi North 15.0 mph 36.8 mph 0.00 in Snow Light Snow
8:56 PM 25.0 °F 11.7 °F 16.0 °F 69% 30.04 in 9.0 mi NNW 17.3 mph 28.8 mph 0.00 in Snow Light Snow
9:56 PM 25.0 °F 16.3 °F 14.0 °F 63% 30.05 in 10.0 mi NE 8.1 mph 23.0 mph 0.00 in   Overcast
10:15 PM 24.8 °F 14.0 °F 15.8 °F 69% 30.04 in 9.0 mi North 11.5 mph 32.2 mph 0.00 in Snow Light Snow
10:56 PM 25.0 °F 13.1 °F 16.0 °F 69% 30.08 in 10.0 mi North 13.8 mph 31.1 mph 0.00 in   Overcast
11:56 PM 25.0 °F 12.2 °F 16.0 °F 69% 30.09 in 9.0 mi North 16.1 mph 28.8 mph 0.00 in Snow Light Snow